| time (UTC) | temp F | wind direction | speed MPH | gust MPH | rain 1hr in | rain 24hr in | rain mn in | humidity % | barometer mb |
| 20260905220025 | 61 | 255 | 6.0 | 16.0 | 0.00 | 0.00 | 0.00 | 45 | 1008.5 |
| 20260905214519 | 61 | 260 | 6.0 | 16.0 | 0.00 | 0.00 | 0.00 | 44 | 1008.7 |
| 20260905213021 | 60 | 253 | 7.0 | 20.0 | 0.00 | 0.00 | 0.00 | 46 | 1008.9 |
| 20260905211535 | 62 | 281 | 7.0 | 25.0 | 0.00 | 0.00 | 0.00 | 41 | 1008.8 |
| 20260905210020 | 62 | 272 | 6.0 | 19.0 | 0.00 | 0.00 | 0.00 | 40 | 1008.8 |
| 20260905204524 | 62 | 300 | 7.0 | 21.0 | 0.00 | 0.00 | 0.00 | 40 | 1008.8 |
| 20260905203033 | 62 | 277 | 6.0 | 16.0 | 0.00 | 0.00 | 0.00 | 40 | 1008.7 |
| 20260905201525 | 62 | 273 | 5.0 | 14.0 | 0.00 | 0.00 | 0.00 | 41 | 1009.0 |
| 20260905200015 | 61 | 302 | 6.0 | 18.0 | 0.00 | 0.00 | 0.00 | 42 | 1008.9 |
| 20260905194514 | 62 | 223 | 5.0 | 17.0 | 0.00 | 0.00 | 0.00 | 40 | 1009.0 |
| 20260905193021 | 63 | 240 | 7.0 | 22.0 | 0.00 | 0.00 | 0.00 | 36 | 1009.2 |
| 20260905191523 | 63 | 257 | 3.0 | 13.0 | 0.00 | 0.00 | 0.00 | 33 | 1009.1 |
| 20260905190012 | 63 | 165 | 2.0 | 9.0 | 0.00 | 0.00 | 0.00 | 34 | 1009.4 |
| 20260905184512 | 63 | 278 | 1.0 | 16.0 | 0.00 | 0.00 | 0.00 | 34 | 1009.6 |
| 20260905183011 | 62 | 253 | 7.0 | 14.0 | 0.00 | 0.00 | 0.00 | 32 | 1009.6 |
| 20260905181511 | 63 | 328 | 6.0 | 12.0 | 0.00 | 0.00 | 0.00 | 29 | 1009.6 |
| 20260905180008 | 62 | 277 | 3.0 | 12.0 | 0.00 | 0.00 | 0.00 | 30 | 1009.5 |
| 20260905174506 | 61 | 58 | 3.0 | 8.0 | 0.00 | 0.00 | 0.00 | 33 | 1009.5 |
| 20260905173005 | 61 | 228 | 3.0 | 9.0 | 0.00 | 0.00 | 0.00 | 33 | 1009.6 |
| 20260905171504 | 59 | 65 | 1.0 | 7.0 | 0.00 | 0.00 | 0.00 | 35 | 1009.6 |
| 20260905170002 | 58 | 135 | 2.0 | 5.0 | 0.00 | 0.00 | 0.00 | 38 | 1009.7 |
| 20260905164501 | 57 | 275 | 1.0 | 6.0 | 0.00 | 0.00 | 0.00 | 34 | 1009.5 |
| 20260905163059 | 57 | 280 | 2.0 | 9.0 | 0.00 | 0.00 | 0.00 | 34 | 1009.4 |
| 20260905161558 | 56 | 74 | 5.0 | 9.0 | 0.00 | 0.00 | 0.00 | 42 | 1009.4 |
| 20260905160057 | 54 | 130 | 3.0 | 9.0 | 0.00 | 0.00 | 0.00 | 43 | 1009.5 |
| 20260905154556 | 54 | 58 | 1.0 | 5.0 | 0.00 | 0.00 | 0.00 | 45 | 1009.6 |
| 20260905153053 | 53 | 229 | 0.0 | 4.0 | 0.00 | 0.00 | 0.00 | 47 | 1009.4 |
| 20260905151551 | 52 | 115 | 1.0 | 5.0 | 0.00 | 0.00 | 0.00 | 47 | 1009.4 |
| 20260905150052 | 51 | 68 | 2.0 | 15.0 | 0.00 | 0.00 | 0.00 | 47 | 1009.1 |
| 20260905144546 | 49 | 247 | 5.0 | 15.0 | 0.00 | 0.00 | 0.00 | 43 | 1009.0 |
| 20260905143041 | 49 | 284 | 6.0 | 19.0 | 0.00 | 0.00 | 0.00 | 45 | 1009.0 |
| 20260905141540 | 48 | 273 | 7.0 | 23.0 | 0.00 | 0.00 | 0.00 | 48 | 1008.7 |
| 20260905140045 | 47 | 241 | 7.0 | 23.0 | 0.00 | 0.00 | 0.00 | 48 | 1008.3 |
| 20260905134541 | 0 | 0.0 | 0.0 | 0.00 | 0.00 | 0.00 | 1008.2 | ||
| 20260905133029 | 0 | 0.0 | 0.0 | 0.00 | 0.00 | 0.00 | 1008.0 | ||
| 20260905131530 | 0 | 0.0 | 0.0 | 0.00 | 0.00 | 0.00 | 1007.9 | ||
| 20260905130035 | 0 | 0.0 | 0.0 | 0.00 | 0.00 | 0.00 | 1008.1 | ||
| 20260905124523 | 0 | 0.0 | 0.0 | 0.00 | 0.00 | 0.00 | 1008.1 | ||
| 20260905123016 | 0 | 0.0 | 0.0 | 0.00 | 0.00 | 0.00 | 1008.1 | ||
| 20260905121510 | 0 | 0.0 | 0.0 | 0.00 | 0.00 | 0.00 | 1008.2 | ||
| 20260905120006 | 0 | 0.0 | 0.0 | 0.00 | 0.00 | 0.00 | 1008.5 | ||
| 20260905114504 | 45 | 277 | 5.0 | 16.0 | 0.00 | 0.00 | 0.00 | 58 | 1008.7 |
| 20260905113003 | 46 | 263 | 7.0 | 26.0 | 0.00 | 0.00 | 0.00 | 58 | 1008.7 |
| 20260905111503 | 46 | 227 | 7.0 | 18.0 | 0.00 | 0.00 | 0.00 | 61 | 1008.6 |
| 20260905110003 | 46 | 256 | 5.0 | 24.0 | 0.00 | 0.00 | 0.00 | 61 | 1008.7 |
| 20260905104613 | 46 | 275 | 6.0 | 16.0 | 0.00 | 0.00 | 0.00 | 61 | 1008.5 |
| 20260905103100 | 46 | 214 | 6.0 | 15.0 | 0.00 | 0.00 | 0.00 | 59 | 1008.6 |
| 20260905101604 | 47 | 269 | 6.0 | 27.0 | 0.00 | 0.00 | 0.00 | 55 | 1008.7 |
| 20260905100105 | 47 | 317 | 5.0 | 15.0 | 0.00 | 0.00 | 0.00 | 57 | 1008.7 |
| 20260905094555 | 46 | 267 | 3.0 | 15.0 | 0.00 | 0.00 | 0.00 | 61 | 1008.7 |
| 20260905093054 | 46 | 271 | 6.0 | 14.0 | 0.00 | 0.00 | 0.00 | 63 | 1008.7 |
| 20260905091553 | 46 | 256 | 7.0 | 17.0 | 0.00 | 0.00 | 0.00 | 63 | 1008.8 |
| 20260905090114 | 46 | 273 | 6.0 | 22.0 | 0.00 | 0.00 | 0.00 | 62 | 1009.0 |
| 20260905084550 | 46 | 265 | 5.0 | 17.0 | 0.00 | 0.00 | 0.00 | 66 | 1009.0 |
| 20260905083047 | 46 | 282 | 6.0 | 19.0 | 0.00 | 0.00 | 0.00 | 67 | 1008.8 |
| 20260905081546 | 46 | 168 | 6.0 | 20.0 | 0.00 | 0.00 | 0.00 | 70 | 1009.0 |
| 20260905080044 | 45 | 275 | 8.0 | 23.0 | 0.00 | 0.00 | 0.00 | 73 | 1009.0 |
| 20260905074545 | 46 | 215 | 6.0 | 16.0 | 0.00 | 0.00 | 0.00 | 73 | 1009.1 |
| 20260905073045 | 46 | 267 | 6.0 | 19.0 | 0.00 | 0.00 | 0.00 | 72 | 1009.1 |
| 20260905071539 | 46 | 242 | 5.0 | 17.0 | 0.00 | 0.00 | 0.00 | 73 | 1009.1 |
| 20260905070046 | 46 | 252 | 5.0 | 23.0 | 0.00 | 0.00 | 0.00 | 72 | 1009.0 |
| 20260905064539 | 46 | 249 | 6.0 | 19.0 | 0.00 | 0.00 | 0.00 | 71 | 1008.7 |
| 20260905063037 | 46 | 292 | 6.0 | 19.0 | 0.00 | 0.00 | 0.00 | 72 | 1008.6 |
| 20260905061541 | 46 | 305 | 6.0 | 17.0 | 0.00 | 0.00 | 0.00 | 73 | 1008.6 |
| 20260905060037 | 46 | 288 | 8.0 | 22.0 | 0.00 | 0.00 | 0.00 | 71 | 1008.6 |
| 20260905054538 | 46 | 284 | 9.0 | 25.0 | 0.00 | 0.00 | 0.00 | 71 | 1008.7 |
| 20260905053035 | 46 | 15 | 4.0 | 19.0 | 0.00 | 0.00 | 0.00 | 74 | 1008.7 |
| 20260905051534 | 46 | 286 | 6.0 | 21.0 | 0.00 | 0.00 | 0.00 | 73 | 1008.5 |
| 20260905050033 | 47 | 272 | 9.0 | 18.0 | 0.00 | 0.00 | 0.00 | 73 | 1008.5 |
| 20260905044533 | 47 | 280 | 5.0 | 20.0 | 0.00 | 0.00 | 0.00 | 74 | 1008.4 |
| 20260905043031 | 47 | 198 | 6.0 | 20.0 | 0.00 | 0.00 | 0.00 | 74 | 1008.3 |
| 20260905041546 | 47 | 309 | 10.0 | 19.0 | 0.00 | 0.00 | 0.00 | 74 | 1008.1 |
| 20260905040031 | 48 | 267 | 5.0 | 20.0 | 0.00 | 0.00 | 0.00 | 72 | 1007.8 |
| 20260905034529 | 48 | 242 | 8.0 | 23.0 | 0.00 | 0.00 | 0.00 | 72 | 1007.6 |
| 20260905033028 | 48 | 303 | 6.0 | 18.0 | 0.00 | 0.00 | 0.00 | 72 | 1007.6 |
| 20260905031527 | 48 | 260 | 4.0 | 14.0 | 0.00 | 0.00 | 0.00 | 75 | 1007.5 |
| 20260905030026 | 48 | 275 | 5.0 | 20.0 | 0.00 | 0.00 | 0.00 | 75 | 1007.3 |
| 20260905024530 | 48 | 277 | 4.0 | 14.0 | 0.00 | 0.00 | 0.00 | 76 | 1007.2 |
| 20260905023024 | 49 | 277 | 3.0 | 20.0 | 0.00 | 0.00 | 0.00 | 73 | 1006.9 |
| 20260905021531 | 49 | 248 | 7.0 | 14.0 | 0.00 | 0.00 | 0.00 | 74 | 1007.2 |
| 20260905020025 | 49 | 304 | 5.0 | 16.0 | 0.00 | 0.00 | 0.00 | 74 | 1007.1 |
| 20260905014524 | 50 | 229 | 7.0 | 19.0 | 0.00 | 0.00 | 0.00 | 72 | 1007.2 |
| 20260905013024 | 51 | 199 | 5.0 | 15.0 | 0.00 | 0.00 | 0.00 | 70 | 1007.2 |
| 20260905011523 | 51 | 202 | 8.0 | 17.0 | 0.00 | 0.00 | 0.00 | 68 | 1007.2 |
| 20260905010021 | 53 | 289 | 5.0 | 12.0 | 0.00 | 0.00 | 0.00 | 65 | 1007.2 |
| 20260905004521 | 53 | 277 | 4.0 | 15.0 | 0.00 | 0.00 | 0.00 | 65 | 1007.0 |
| 20260905003021 | 55 | 234 | 5.0 | 23.0 | 0.00 | 0.00 | 0.00 | 62 | 1006.9 |
| 20260905001519 | 55 | 277 | 5.0 | 19.0 | 0.00 | 0.00 | 0.00 | 61 | 1006.9 |
| 20260905000019 | 56 | 278 | 5.0 | 17.0 | 0.00 | 0.00 | 0.00 | 60 | 1006.8 |
| 20260904234520 | 56 | 283 | 5.0 | 20.0 | 0.00 | 0.00 | 0.00 | 59 | 1007.0 |
| 20260904233018 | 56 | 202 | 8.0 | 20.0 | 0.00 | 0.00 | 0.00 | 57 | 1006.8 |
| 20260904231518 | 57 | 229 | 6.0 | 18.0 | 0.00 | 0.00 | 0.00 | 56 | 1006.7 |
| 20260904230019 | 58 | 232 | 4.0 | 22.0 | 0.00 | 0.00 | 0.00 | 55 | 1006.8 |
| 20260904224517 | 58 | 271 | 5.0 | 19.0 | 0.00 | 0.00 | 0.00 | 54 | 1006.8 |
| 20260904223017 | 58 | 250 | 5.0 | 14.0 | 0.00 | 0.00 | 0.00 | 54 | 1006.8 |
| 20260904221519 | 57 | 232 | 10.0 | 23.0 | 0.00 | 0.00 | 0.00 | 54 | 1007.0 |